"Pseudo-MPEC" for P10HLL3

Created 2018 Jun 18 9:18:18 UT using Find_Orb

Click here for an explanation of pseudo-MPECs

 
 Astrometry: 
     P10HLL3  C2018 06 12n(AstrometryQ#nT\qrr!^v1IM9:oB;1uLAZuirjK#msW1/(*(]hF51
     P10HLL3  C2018 06 12$okvB_6k'+VWw6R@.Bkej?v!N$_Vb(41M0S2xm+UJR`osIk45]1kF51
     P10HLL3  C2018 06 122iPB+21`uIrvHf[#6x/PG\yl!h(8Ss$B#GN62DP-n]ph?MX=\c?bF51
     P10HLL3  C2018 06 120tP8f)ekCl.Y$Rceeredacted;Ip.hC@_Z)#Slg'vZmZE8`h*H!bF51
     P10HLL3 ^C2018 06 14.53501320 06 42.817-38 16 52.03         19.95GVNEOCP568
     P10HLL3 ^C2018 06 14.53595920 06 42.838-38 16 51.67         19.96GVNEOCP568
     P10HLL3 ^C2018 06 14.53691020 06 42.858-38 16 51.30         19.99GVNEOCP568
     P10HLL3 KC2018 06 14d(!*QK8sI22)i\bV=^60r\I2$-ZZJ[DR6(];tVd-BGI1]1gI$1v:474
     P10HLL3 KC2018 06 144.ruiRyJQQ:YhUTDta@AdQ%O?YRwjN7X]/.L-Pm_DL'SZLMuFI_x474
     P10HLL3 KC2018 06 14(h=aA:,I+,nL20Z#s`*:dA`MjyKrhB4c6@2u^si1+TEH1b;ryD@h474
     P10HLL3 |C2018 06 18sQ;aMO$cIk^-d'rI[=Km54bbjBa4bAW\seeLrwy!VJGW1[*Zq!`k807
     P10HLL3 |C2018 06 18tSdInSe50!a\y:]UV-V0gkH!JaZo[;HdpS)+=+Fy^`\miIL-jq0k807
     P10HLL3 |C2018 06 1844-n)B/QBM!O1,l,kTlM!bp$4$n+h9?Fh+CQ6e%7;jw-`)S:uZo]807
     P10HLL3 |C2018 06 18QsK/A0wZ*y[r^X#tC\e8LbF2kS@3uWdn\Mil$$P#9H;q5:bNEOCP807

Station data:
(474) Mount John Observatory, Lake Tekapo  (S43.987388 E170.464960)  New
   Zealand.  Observers A. C. Gilmore, P. M. Kilmartin. Measurer P. M.
   Kilmartin. 1.0-m f/7.7 reflector + CCD.
(568) Mauna Kea  (N19.826116 W155.472200)  US/Hawaii.
(807) Cerro Tololo Observatory, La Serena  (S30.169136 W70.805900)  Chile.
   1.5-m Ritchey-Chrétien.
(F51) Pan-STARRS 1, Haleakala  (N20.707235 W156.255910)  US/Hawaii.
   Observers N. Primak, A. Schultz, S. Watters, J. Thiel, T. Goggia. Measurer
   PS1 Science Consortium. 1.8-m Ritchey-Chrétien + CCD.

Orbital elements:  P10HLL3
   Perihelion 2018 May 29.475479 +/- 0.337 TT = 11:24:41 (JD 2458267.975479)
Epoch 2018 Jun 18.0 TT = JDT 2458287.5   Earth MOID: 0.3359   Ma: 0.0229
M   7.15384 +/- 0.08                (J2000 ecliptic)          AutoNEOCP
n   0.36640331 +/- 0.00234          Peri.  294.01891 +/- 0.40
a   1.93417806 +/- 0.00822          Node   325.61683 +/- 0.16
e   0.3108835 +/- 0.0026            Incl.    6.05215 +/- 0.014
P   2.69/982.51d           H 20.7   G  0.15   U  8.7  
q 1.33287386 +/- 0.000967    Q 2.53548227 +/- 0.0159
From 14 observations 2018 June 12-18; mean residual 0".07
Residuals in arcseconds: 
180612 F51  .03+  .00     180614 568  .00   .02-    180618 807  .12+  .09-    
180612 F51  .01-  .03-    180614 568  .01-  .00     180618 807  .12+  .01-    
180612 F51  .04-  .02-    180614 474  .04+  .07-    180618 807  .13-  .07-    
180612 F51  .03+  .04+    180614 474  .12-  .16+    180618 807  .10-  .16+    
180614 568  .01-  .04-    180614 474  .07+  .01-    

Ephemerides (geocentric):
Date (UTC) HH   RA              Dec         delta   r     elong  mag " sig PA
---- -- -- --  -------------   -----------  ------ ------ -----  --- ---- ---
2018 06 18 09  20 08 20.157   -37 51 06.63  .37324 1.3430 146.5 20.3  .11 130
2018 06 18 10  20 08 20.888   -37 50 48.76  .37319 1.3431 146.5 20.3  .12 131
2018 06 18 11  20 08 21.613   -37 50 30.87  .37313 1.3431 146.5 20.3  .12 131
2018 06 18 12  20 08 22.331   -37 50 12.94  .37308 1.3432 146.6 20.3  .13 131
2018 06 18 13  20 08 23.042   -37 49 54.99  .37302 1.3432 146.6 20.3  .14 132
2018 06 18 14  20 08 23.746   -37 49 37.01  .37297 1.3433 146.6 20.3  .15 132
2018 06 18 15  20 08 24.443   -37 49 19.00  .37292 1.3433 146.7 20.3  .16 132
2018 06 18 16  20 08 25.134   -37 49 00.96  .37286 1.3433 146.7 20.3  .17 132
2018 06 18 17  20 08 25.818   -37 48 42.89  .37281 1.3434 146.7 20.3  .17 132
2018 06 18 18  20 08 26.495   -37 48 24.80  .37276 1.3434 146.8 20.3  .18 133
2018 06 18 19  20 08 27.165   -37 48 06.67  .37271 1.3435 146.8 20.3  .19 133
2018 06 18 20  20 08 27.828   -37 47 48.52  .37265 1.3435 146.8 20.3  .20 133
2018 06 18 21  20 08 28.485   -37 47 30.34  .37260 1.3436 146.8 20.3  .21 133
2018 06 18 22  20 08 29.135   -37 47 12.12  .37255 1.3436 146.9 20.3  .22 133
2018 06 18 23  20 08 29.778   -37 46 53.88  .37250 1.3436 146.9 20.3  .23 133
2018 06 19 00  20 08 30.414   -37 46 35.61  .37244 1.3437 146.9 20.3  .24 133
2018 06 19 01  20 08 31.044   -37 46 17.32  .37239 1.3437 147.0 20.3  .25 133
2018 06 19 02  20 08 31.667   -37 45 58.99  .37234 1.3438 147.0 20.3  .26 133
2018 06 19 03  20 08 32.283   -37 45 40.63  .37229 1.3438 147.0 20.3  .27 134
2018 06 19 04  20 08 32.892   -37 45 22.25  .37224 1.3439 147.1 20.3  .28 134
2018 06 19 05  20 08 33.495   -37 45 03.84  .37219 1.3439 147.1 20.3  .29 134
2018 06 19 06  20 08 34.091   -37 44 45.40  .37214 1.3440 147.1 20.3  .30 134
2018 06 19 07  20 08 34.680   -37 44 26.92  .37208 1.3440 147.2 20.3  .31 134
2018 06 19 08  20 08 35.263   -37 44 08.42  .37203 1.3440 147.2 20.3  .32 134
2018 06 19 09  20 08 35.838   -37 43 49.90  .37198 1.3441 147.2 20.3  .33 134
2018 06 19 10  20 08 36.407   -37 43 31.34  .37193 1.3441 147.3 20.3  .34 134
2018 06 19 11  20 08 36.970   -37 43 12.75  .37188 1.3442 147.3 20.3  .35 134
2018 06 19 12  20 08 37.526   -37 42 54.14  .37183 1.3442 147.3 20.3  .37 134
2018 06 19 13  20 08 38.075   -37 42 35.49  .37178 1.3443 147.4 20.3  .38 134
2018 06 19 14  20 08 38.617   -37 42 16.82  .37173 1.3443 147.4 20.3  .39 134
2018 06 19 15  20 08 39.153   -37 41 58.11  .37168 1.3444 147.4 20.3  .40 134
2018 06 19 16  20 08 39.682   -37 41 39.38  .37164 1.3444 147.5 20.3  .41 134
2018 06 19 17  20 08 40.204   -37 41 20.62  .37159 1.3444 147.5 20.3  .42 134
2018 06 19 18  20 08 40.720   -37 41 01.83  .37154 1.3445 147.5 20.3  .44 134
2018 06 19 19  20 08 41.229   -37 40 43.01  .37149 1.3445 147.6 20.3  .45 135
2018 06 19 20  20 08 41.731   -37 40 24.17  .37144 1.3446 147.6 20.3  .46 135
2018 06 19 21  20 08 42.227   -37 40 05.29  .37139 1.3446 147.6 20.3  .47 135
2018 06 19 22  20 08 42.716   -37 39 46.38  .37134 1.3447 147.7 20.3  .49 135
2018 06 19 23  20 08 43.199   -37 39 27.45  .37129 1.3447 147.7 20.3  .50 135
2018 06 20 00  20 08 43.675   -37 39 08.49  .37125 1.3448 147.7 20.3  .51 135
2018 06 20 01  20 08 44.144   -37 38 49.49  .37120 1.3448 147.8 20.3  .52 135
2018 06 20 02  20 08 44.607   -37 38 30.47  .37115 1.3448 147.8 20.3  .54 135
2018 06 20 03  20 08 45.063   -37 38 11.42  .37110 1.3449 147.8 20.3  .55 135
2018 06 20 04  20 08 45.512   -37 37 52.34  .37106 1.3449 147.9 20.3  .56 135
2018 06 20 05  20 08 45.955   -37 37 33.23  .37101 1.3450 147.9 20.3  .58 135
2018 06 20 06  20 08 46.391   -37 37 14.09  .37096 1.3450 147.9 20.3  .59 135
2018 06 20 07  20 08 46.821   -37 36 54.92  .37091 1.3451 148.0 20.3  .61 135
2018 06 20 08  20 08 47.244   -37 36 35.72  .37087 1.3451 148.0 20.3  .62 135